period_start,C,m1,H,J0,J1,J2,J3,J4,J5,JA,JB,JC,JD,JJ,JK,JN,#
2018-04-23 00:00:43,0.12,0.96,0.00,27.17,30.20,32.96,13.56,48.38,1005.20,2014.00,3022.97,2798.44,3211.47,599.51,580.74,9.58,0000 0000 0000 0000 000000
2018-04-23 00:05:44,0.11,0.97,0.00,27.14,30.20,32.96,13.66,48.40,1005.39,2014.00,3020.77,2796.87,3209.61,600.17,581.52,9.63,0000 0000 0000 0000 000000
2018-04-23 00:10:45,0.11,0.98,0.00,27.12,30.20,32.96,13.63,48.32,1005.39,2014.00,3018.63,2795.46,3207.83,599.97,581.27,9.68,0000 0000 0000 0000 000000
2018-04-23 00:15:46,0.11,0.98,0.00,27.09,30.20,32.97,13.58,48.43,1005.39,2014.00,3016.46,2793.93,3206.04,599.76,581.19,9.73,0000 0000 0000 0000 000000
2018-04-23 00:20:48,0.10,0.99,0.00,27.08,30.20,32.97,13.56,48.34,1005.49,2014.00,3014.35,2792.50,3204.26,599.89,581.21,9.78,0000 0000 0000 0000 000000
2018-04-23 00:25:49,0.11,0.99,0.00,27.08,30.20,32.96,13.62,48.38,1005.87,2014.00,3012.15,2790.94,3202.46,600.23,581.88,9.83,0000 0000 0000 0000 000000
2018-04-23 00:30:50,0.11,1.00,0.00,27.05,30.20,32.96,13.62,48.26,1006.12,2014.00,3010.08,2789.54,3200.73,599.98,581.96,9.88,0000 0000 0000 0000 000000
2018-04-23 00:35:51,0.10,1.00,0.00,27.04,30.20,32.94,13.52,48.19,1006.38,2014.00,3008.06,2788.03,3199.01,599.69,581.85,9.93,0000 0000 0000 0000 000000
2018-04-23 00:40:53,0.10,1.01,0.00,27.04,30.20,32.93,13.72,48.08,1006.79,2014.00,3006.16,2786.63,3197.38,600.34,582.65,9.98,0000 0000 0000 0000 000000
2018-04-23 00:45:54,0.10,1.01,0.00,27.02,30.20,32.95,13.70,48.14,1006.85,2013.99,3004.11,2785.26,3195.62,600.25,582.70,10.03,0000 0000 0000 0000 000000
2018-04-23 00:50:56,0.11,1.02,0.00,27.05,30.19,32.93,13.64,48.11,1006.85,2013.99,3002.01,2783.87,3194.00,600.12,582.47,10.08,0000 0000 0000 0000 000000
2018-04-23 00:55:57,0.10,1.03,0.00,27.05,30.18,32.94,13.61,48.04,1006.79,2013.99,3000.03,2782.45,3192.39,600.24,582.55,10.13,0000 0000 0000 0000 000000
2018-04-23 01:00:58,0.11,1.03,0.00,27.04,30.17,32.91,13.59,48.16,1006.80,2013.99,2997.95,2780.97,3190.69,599.84,582.27,10.18,0000 0000 0000 0000 000000
2018-04-23 01:05:59,0.10,1.04,0.00,27.05,30.17,32.91,13.63,48.12,1006.86,2013.99,2995.93,2779.62,3189.03,600.09,582.41,10.23,0000 0000 0000 0000 000000
2018-04-23 01:11:01,0.10,1.04,0.00,27.06,30.17,32.91,13.57,48.08,1006.87,2013.99,2993.83,2778.16,3187.26,599.44,581.80,10.28,0000 0000 0000 0000 000000
2018-04-23 01:16:02,0.11,1.05,0.00,27.08,30.17,32.91,13.60,48.19,1006.80,2013.99,2991.81,2776.74,3185.60,600.12,582.30,10.33,0000 0000 0000 0000 000000
2018-04-23 01:21:04,0.10,1.05,0.00,27.12,30.17,32.90,13.59,48.10,1006.54,2013.99,2989.82,2775.46,3183.96,600.15,582.06,10.38,0000 0000 0000 0000 000000
2018-04-23 01:26:05,0.11,1.06,0.00,27.14,30.17,32.91,13.65,48.04,1006.81,2013.99,2987.73,2773.95,3182.28,600.10,582.34,10.43,0000 0000 0000 0000 000000
2018-04-23 01:31:06,0.11,1.06,0.00,27.11,30.17,32.91,13.65,48.02,1006.94,2013.99,2985.59,2772.52,3180.58,600.00,582.27,10.48,0000 0000 0000 0000 000000
2018-04-23 01:36:08,0.10,1.07,0.00,27.12,30.17,32.90,13.58,48.06,1006.88,2013.99,2983.53,2771.11,3178.89,599.86,582.08,10.53,0000 0000 0000 0000 000000
2018-04-23 01:41:09,0.11,1.07,0.00,27.12,30.17,32.91,13.59,48.08,1006.85,2013.99,2981.40,2769.69,3177.22,599.90,582.27,10.58,0000 0000 0000 0000 000000
2018-04-23 01:46:10,0.10,1.08,0.00,27.15,30.17,32.91,13.59,48.13,1006.86,2013.99,2979.48,2768.29,3175.57,599.58,581.79,10.63,0000 0000 0000 0000 000000
2018-04-23 01:51:12,0.11,1.09,0.00,27.18,30.17,32.92,13.66,48.12,1006.86,2013.99,2977.49,2766.85,3173.90,600.44,582.52,10.68,0000 0000 0000 0000 000000
2018-04-23 01:56:13,0.10,1.09,0.00,27.20,30.17,32.92,13.63,48.11,1006.85,2013.99,2975.44,2765.49,3172.25,600.49,582.50,10.73,0000 0000 0000 0000 000000
2018-04-23 02:01:14,0.10,1.10,0.00,27.18,30.17,32.92,13.57,48.21,1006.85,2013.98,2973.38,2764.05,3170.54,599.92,581.99,10.78,0000 0000 0000 0000 000000
2018-04-23 02:06:16,0.11,1.10,0.00,27.20,30.18,32.93,13.57,48.13,1006.87,2013.98,2971.36,2762.65,3168.82,599.75,581.83,10.83,0000 0000 0000 0000 000000
2018-04-23 02:11:17,0.10,1.11,0.00,27.20,30.19,32.95,13.58,48.21,1006.87,2013.99,2969.33,2761.30,3167.17,600.00,582.07,10.88,0000 0000 0000 0000 000000
2018-04-23 02:16:18,0.11,1.11,0.00,27.22,30.20,32.94,13.53,48.09,1006.87,2013.97,2967.27,2759.83,3165.50,599.82,581.86,10.93,0000 0000 0000 0000 000000
2018-04-23 02:21:19,0.11,1.12,0.00,27.24,30.20,32.95,13.52,48.17,1006.85,2013.96,2965.04,2758.38,3163.74,599.68,581.66,10.98,0000 0000 0000 0000 000000
2018-04-23 02:26:20,0.11,1.13,0.00,27.25,30.20,32.96,13.57,48.25,1006.86,2013.96,2963.01,2756.91,3162.03,599.87,581.91,11.03,0000 0000 0000 0000 000000
2018-04-23 02:31:21,0.10,1.13,0.00,27.26,30.20,32.97,13.64,48.12,1006.87,2013.94,2960.97,2755.52,3160.35,600.10,582.03,11.08,0000 0000 0000 0000 000000
2018-04-23 02:36:23,0.10,1.14,0.00,27.26,30.21,32.96,13.51,48.13,1007.00,2013.79,2959.00,2754.00,3158.55,599.88,581.91,11.14,0000 0000 0000 0000 000000
2018-04-23 02:41:24,0.12,1.14,0.00,27.27,30.22,32.97,13.51,48.13,1007.17,2013.89,2956.71,2752.56,3156.87,599.64,581.71,11.19,0000 0000 0000 0000 000000
2018-04-23 02:46:25,0.10,1.15,0.00,27.29,30.22,32.98,13.60,48.08,1007.33,2013.94,2954.69,2751.22,3155.24,599.97,582.03,11.24,0000 0000 0000 0000 000000
2018-04-23 02:51:27,0.10,1.15,0.00,27.32,30.22,32.99,13.55,48.06,1007.34,2013.91,2952.66,2749.83,3153.50,599.98,582.09,11.29,0000 0000 0000 0000 000000
2018-04-23 02:56:28,0.09,1.16,0.00,27.35,30.24,32.99,13.63,48.10,1007.34,2013.77,2950.57,2748.32,3151.65,600.14,582.18,11.34,0000 0000 0000 0000 000000
2018-04-23 03:01:29,0.12,1.16,0.00,27.36,30.25,32.99,13.61,48.15,1007.34,2013.66,2948.24,2746.70,3149.75,600.12,582.15,11.39,0000 0000 0000 0000 000000
2018-04-23 03:06:30,0.10,1.17,0.00,27.39,30.25,33.01,13.56,48.10,1007.28,2013.35,2945.89,2744.97,3147.75,599.72,581.80,11.44,0000 0000 0000 0000 000000
2018-04-23 03:11:32,0.12,1.17,0.00,27.40,30.27,33.02,13.60,48.09,1007.28,2013.17,2943.41,2743.26,3145.65,599.88,581.79,11.49,0000 0000 0000 0000 000000
2018-04-23 03:16:33,0.13,1.18,0.00,27.43,30.27,33.04,13.64,48.20,1007.33,2013.14,2940.96,2741.50,3143.65,600.11,582.00,11.54,0000 0000 0000 0000 000000
2018-04-23 03:21:34,0.14,1.19,0.00,27.45,30.29,33.04,13.54,48.19,1007.25,2013.09,2938.31,2739.61,3141.44,600.08,581.80,11.59,0000 0000 0000 0000 000000
2018-04-23 03:26:35,0.15,1.20,0.00,27.45,30.30,33.06,13.59,48.11,1007.18,2013.04,2935.61,2737.61,3139.15,599.88,581.73,11.64,0000 0000 0000 0000 000000
2018-04-23 03:31:37,0.14,1.20,0.00,27.49,30.30,33.08,13.57,48.10,1007.03,2013.02,2932.83,2735.72,3136.90,599.86,581.55,11.69,0000 0000 0000 0000 000000
2018-04-23 03:36:38,0.15,1.21,0.00,27.52,30.32,33.08,13.59,48.08,1006.87,2013.00,2929.98,2733.67,3134.66,600.16,581.60,11.74,0000 0000 0000 0000 000000
2018-04-23 03:41:39,0.18,1.22,0.00,27.55,30.32,33.08,13.59,48.08,1006.88,2013.00,2926.57,2731.35,3132.04,600.04,581.17,11.79,0000 0000 0000 0000 000000
2018-04-23 03:46:40,0.17,1.23,0.00,27.57,30.34,33.10,13.65,48.10,1006.86,2013.00,2923.27,2729.16,3129.48,600.29,581.67,11.84,0000 0000 0000 0000 000000
2018-04-23 03:51:42,0.16,1.24,0.00,27.57,30.35,33.11,13.57,48.04,1006.85,2013.00,2920.22,2727.09,3127.11,600.27,581.61,11.89,0000 0000 0000 0000 000000
2018-04-23 03:56:43,0.16,1.25,0.00,27.57,30.36,33.14,13.51,47.98,1006.85,2013.00,2917.23,2724.99,3124.70,599.86,581.21,11.94,0000 0000 0000 0000 000000
2018-04-23 04:01:44,0.13,1.25,0.00,27.58,30.37,33.14,13.54,48.08,1006.70,2013.00,2914.59,2723.10,3122.44,599.97,581.27,11.99,0000 0000 0000 0000 000000
2018-04-23 04:06:45,0.16,1.26,0.00,27.60,30.38,33.15,13.64,48.06,1006.82,2013.00,2911.79,2721.15,3120.18,600.28,581.45,12.04,0000 0000 0000 0000 000000
2018-04-23 04:11:46,0.15,1.27,0.00,27.60,30.40,33.16,13.55,48.06,1006.77,2013.00,2909.11,2719.24,3117.93,599.97,581.13,12.09,0000 0000 0000 0000 000000
2018-04-23 04:16:48,0.15,1.28,0.00,27.60,30.40,33.17,13.58,48.04,1006.80,2013.00,2906.43,2717.30,3115.71,599.92,581.13,12.14,0000 0000 0000 0000 000000
2018-04-23 04:21:48,0.14,1.28,0.00,27.62,30.42,33.20,13.56,48.09,1006.71,2013.00,2903.75,2715.39,3113.45,600.07,581.13,12.19,0000 0000 0000 0000 000000
2018-04-23 04:26:50,0.14,1.29,0.00,27.65,30.42,33.21,13.52,48.12,1006.84,2013.00,2901.22,2713.55,3111.33,599.99,581.25,12.24,0000 0000 0000 0000 000000
2018-04-23 04:31:51,0.14,1.30,0.00,27.67,30.44,33.23,13.53,48.10,1006.71,2012.99,2898.73,2711.77,3109.22,599.79,580.82,12.29,0000 0000 0000 0000 000000
2018-04-23 04:36:52,0.14,1.30,0.00,27.67,30.45,33.25,13.48,48.10,1006.52,2012.96,2896.22,2709.92,3107.08,599.49,580.47,12.34,0000 0000 0000 0000 000000
2018-04-23 04:41:53,0.14,1.31,0.00,27.69,30.46,33.24,13.53,48.09,1006.49,2012.95,2893.53,2708.09,3104.85,599.57,580.51,12.39,0000 0000 0000 0000 000000
2018-04-23 04:46:54,0.14,1.32,0.00,27.72,30.47,33.26,13.60,48.07,1006.71,2012.97,2891.00,2706.29,3102.72,600.15,581.05,12.44,0000 0000 0000 0000 000000
2018-04-23 04:51:56,0.13,1.33,0.00,27.72,30.49,33.28,13.60,48.07,1006.62,2012.92,2888.40,2704.44,3100.60,600.34,581.24,12.49,0000 0000 0000 0000 000000
2018-04-23 04:56:57,0.12,1.33,0.00,27.75,30.50,33.29,13.58,48.04,1006.46,2012.85,2886.09,2702.73,3098.58,600.06,580.84,12.54,0000 0000 0000 0000 000000
2018-04-23 05:01:58,0.10,1.34,0.00,27.76,30.52,33.30,13.55,48.07,1006.52,2012.57,2883.83,2701.04,3096.55,599.77,580.56,12.59,0000 0000 0000 0000 000000
2018-04-23 05:06:59,0.10,1.34,0.00,27.77,30.52,33.31,13.59,48.13,1006.39,2012.34,2881.46,2699.27,3094.49,599.89,580.48,12.64,0000 0000 0000 0000 000000
2018-04-23 05:12:01,0.12,1.35,0.00,27.79,30.54,33.33,13.52,48.03,1006.37,2012.10,2879.03,2697.45,3092.34,599.60,580.29,12.69,0000 0000 0000 0000 000000
2018-04-23 05:17:02,0.14,1.36,0.00,27.78,30.55,33.35,13.53,48.13,1006.37,2012.06,2876.62,2695.68,3090.20,599.79,580.45,12.74,0000 0000 0000 0000 000000
2018-04-23 05:22:03,0.14,1.36,0.00,27.78,30.56,33.35,13.50,47.99,1006.37,2012.04,2874.07,2693.84,3088.09,599.83,580.46,12.79,0000 0000 0000 0000 000000
2018-04-23 05:27:05,0.13,1.37,0.00,27.79,30.57,33.37,13.51,47.98,1006.39,2012.01,2871.53,2692.00,3085.92,599.80,580.50,12.84,0000 0000 0000 0000 000000
2018-04-23 05:32:06,0.14,1.38,0.00,27.81,30.58,33.38,13.57,48.09,1006.38,2012.00,2868.99,2690.16,3083.76,600.14,580.78,12.89,0000 0000 0000 0000 000000
2018-04-23 05:37:07,0.15,1.39,0.00,27.82,30.60,33.37,13.53,48.05,1006.37,2012.00,2866.44,2688.31,3081.59,599.94,580.58,12.94,0000 0000 0000 0000 000000
2018-04-23 05:42:08,0.14,1.39,0.00,27.83,30.61,33.40,13.53,48.02,1006.37,2012.00,2863.80,2686.50,3079.33,599.92,580.48,12.99,0000 0000 0000 0000 000000
2018-04-23 05:47:10,0.14,1.40,0.00,27.84,30.62,33.41,13.54,48.01,1006.37,2012.00,2861.43,2684.79,3077.32,600.05,580.66,13.04,0000 0000 0000 0000 000000
2018-04-23 05:52:11,0.13,1.41,0.00,27.82,30.62,33.42,13.58,48.08,1006.39,2012.00,2859.06,2683.05,3075.28,600.43,581.00,13.09,0000 0000 0000 0000 000000
2018-04-23 05:57:13,0.12,1.41,0.00,27.83,30.64,33.44,13.50,48.06,1006.39,2012.00,2856.78,2681.50,3073.43,599.74,580.32,13.14,0000 0000 0000 0000 000000
2018-04-23 06:02:14,0.13,1.42,0.00,27.84,30.65,33.45,13.49,48.05,1006.43,2011.98,2854.43,2679.79,3071.43,599.83,580.43,13.19,0000 0000 0000 0000 000000
2018-04-23 06:07:15,0.12,1.43,0.00,27.84,30.65,33.46,13.51,48.03,1006.66,2011.97,2852.18,2678.14,3069.57,599.65,580.42,13.24,0000 0000 0000 0000 000000
2018-04-23 06:12:16,0.13,1.43,0.00,27.85,30.67,33.47,13.55,48.08,1006.78,2011.96,2850.00,2676.54,3067.69,599.96,580.69,13.29,0000 0000 0000 0000 000000
2018-04-23 06:17:18,0.12,1.44,0.00,27.85,30.67,33.48,13.55,48.14,1006.77,2011.96,2847.83,2674.99,3065.81,599.84,580.57,13.34,0000 0000 0000 0000 000000
2018-04-23 06:22:19,0.13,1.45,0.00,27.85,30.68,33.49,13.47,47.96,1006.61,2011.95,2845.42,2673.30,3063.84,599.69,580.45,13.39,0000 0000 0000 0000 000000
2018-04-23 06:27:21,0.13,1.45,0.00,27.85,30.70,33.49,13.65,48.05,1006.45,2011.91,2843.10,2671.65,3061.81,600.20,580.65,13.45,0000 0000 0000 0000 000000
2018-04-23 06:32:22,0.13,1.46,0.00,27.85,30.70,33.50,13.58,48.03,1006.41,2011.88,2840.86,2669.98,3059.90,600.30,580.76,13.50,0000 0000 0000 0000 000000
2018-04-23 06:37:23,0.11,1.47,0.00,27.85,30.71,33.51,13.44,48.02,1006.41,2011.81,2838.45,2668.27,3057.81,599.72,580.33,13.55,0000 0000 0000 0000 000000
2018-04-23 06:42:25,0.16,1.47,0.00,27.86,30.72,33.50,13.43,48.00,1006.41,2011.81,2836.00,2666.47,3055.79,599.38,579.92,13.60,0000 0000 0000 0000 000000
2018-04-23 06:47:26,0.12,1.48,0.00,27.86,30.72,33.53,13.50,48.07,1006.37,2011.69,2833.58,2664.64,3053.63,599.97,580.50,13.65,0000 0000 0000 0000 000000
2018-04-23 06:52:27,0.13,1.49,0.00,27.87,30.72,33.52,13.61,48.03,1006.37,2011.66,2831.13,2662.88,3051.60,600.17,580.66,13.70,0000 0000 0000 0000 000000
2018-04-23 06:57:29,0.10,1.49,0.00,27.87,30.73,33.53,13.50,47.98,1006.36,2011.42,2828.83,2661.28,3049.62,599.87,580.29,13.75,0000 0000 0000 0000 000000
2018-04-23 07:02:30,0.12,1.50,0.00,27.86,30.75,33.54,13.58,48.03,1006.36,2011.21,2826.45,2659.60,3047.63,600.46,580.85,13.80,0000 0000 0000 0000 000000
2018-04-23 07:07:31,0.13,1.51,0.00,27.83,30.75,33.53,13.51,47.98,1006.36,2011.12,2824.12,2657.89,3045.63,600.05,580.70,13.85,0000 0000 0000 0000 000000
2018-04-23 07:12:32,0.12,1.51,0.00,27.82,30.75,33.54,13.57,48.05,1006.36,2011.06,2821.73,2656.22,3043.66,599.93,580.50,13.90,0000 0000 0000 0000 000000
2018-04-23 07:17:33,0.15,1.52,0.00,27.84,30.75,33.54,13.53,48.05,1006.27,2011.08,2819.18,2654.43,3041.57,600.00,580.49,13.95,0000 0000 0000 0000 000000
2018-04-23 07:22:35,0.13,1.53,0.00,27.82,30.75,33.55,13.47,48.07,1006.08,2011.04,2816.81,2652.73,3039.62,599.84,580.32,14.00,0000 0000 0000 0000 000000
2018-04-23 07:27:36,0.12,1.53,0.00,27.82,30.75,33.55,13.55,48.09,1005.90,2011.03,2814.57,2651.15,3037.67,599.98,580.18,14.05,0000 0000 0000 0000 000000
2018-04-23 07:32:37,0.14,1.54,0.00,27.81,30.76,33.54,13.57,48.04,1005.91,2011.01,2812.17,2649.47,3035.71,600.05,580.43,14.10,0000 0000 0000 0000 000000
2018-04-23 07:37:38,0.14,1.55,0.00,27.78,30.76,33.55,13.51,47.99,1005.88,2011.01,2809.73,2647.78,3033.67,599.66,580.02,14.15,0000 0000 0000 0000 000000
2018-04-23 07:42:40,0.14,1.55,0.00,27.77,30.76,33.56,13.51,48.08,1005.88,2011.01,2807.26,2646.12,3031.70,600.14,580.56,14.20,0000 0000 0000 0000 000000
2018-04-23 07:47:41,0.13,1.56,0.00,27.75,30.76,33.55,13.51,47.99,1005.87,2011.00,2804.66,2644.41,3029.70,599.91,580.34,14.25,0000 0000 0000 0000 000000
2018-04-23 07:52:42,0.15,1.57,0.00,27.75,30.76,33.55,13.59,48.05,1005.87,2011.01,2802.13,2642.68,3027.73,599.98,580.42,14.30,0000 0000 0000 0000 000000
2018-04-23 07:57:44,0.14,1.58,0.00,27.74,30.75,33.54,13.54,47.98,1005.87,2011.00,2799.62,2640.92,3025.67,600.06,580.50,14.35,0000 0000 0000 0000 000000
2018-04-23 08:02:45,0.13,1.58,0.00,27.73,30.75,33.54,13.59,48.02,1005.86,2011.00,2797.20,2639.30,3023.73,600.09,580.50,14.40,0000 0000 0000 0000 000000
2018-04-23 08:07:46,0.14,1.59,0.00,27.70,30.75,33.54,13.60,48.03,1005.81,2011.00,2794.77,2637.60,3021.73,600.26,580.80,14.45,0000 0000 0000 0000 000000
2018-04-23 08:12:47,0.12,1.60,0.00,27.70,30.75,33.53,13.66,48.08,1005.66,2011.01,2792.49,2636.09,3019.90,600.10,580.50,14.50,0000 0000 0000 0000 000000
2018-04-23 08:17:49,0.13,1.60,0.00,27.72,30.75,33.52,13.59,48.06,1005.68,2011.01,2790.21,2634.48,3018.04,600.06,580.30,14.55,0000 0000 0000 0000 000000
2018-04-23 08:22:50,0.11,1.61,0.00,27.71,30.75,33.53,13.59,48.11,1005.63,2011.01,2788.07,2632.96,3016.31,600.01,580.28,14.60,0000 0000 0000 0000 000000
2018-04-23 08:27:51,0.13,1.62,0.00,27.69,30.75,33.51,13.52,47.93,1005.42,2011.00,2785.86,2631.47,3014.47,599.81,580.12,14.65,0000 0000 0000 0000 000000
2018-04-23 08:32:52,0.13,1.62,0.00,27.69,30.75,33.51,13.46,47.96,1005.41,2011.00,2783.63,2629.90,3012.62,599.90,580.18,14.70,0000 0000 0000 0000 000000
2018-04-23 08:37:53,0.12,1.63,0.00,27.67,30.74,33.50,13.49,47.98,1005.40,2011.01,2781.37,2628.48,3010.89,599.88,580.10,14.75,0000 0000 0000 0000 000000
2018-04-23 08:42:55,0.18,1.64,0.00,27.66,30.73,33.50,13.54,48.01,1005.39,2011.01,2778.34,2626.49,3008.65,599.93,580.31,14.80,0000 0000 0000 0000 000000
2018-04-23 08:47:56,0.14,1.65,0.00,27.65,30.72,33.50,13.50,47.95,1005.37,2011.02,2775.55,2624.70,3006.65,599.57,579.91,14.85,0000 0000 0000 0000 000000
2018-04-23 08:52:57,0.12,1.65,0.00,27.62,30.72,33.49,13.51,47.98,1005.35,2011.00,2773.31,2623.23,3004.86,599.82,580.08,14.90,0000 0000 0000 0000 000000
2018-04-23 08:57:58,0.12,1.66,0.00,27.61,30.72,33.50,13.59,48.06,1005.20,2011.02,2771.15,2621.86,3003.14,599.89,580.22,14.95,0000 0000 0000 0000 000000
2018-04-23 09:02:59,0.12,1.66,0.00,27.62,30.70,33.49,13.55,48.01,1005.00,2011.01,2769.00,2620.39,3001.33,599.86,580.09,15.00,0000 0000 0000 0000 000000
2018-04-23 09:08:01,0.12,1.67,0.00,27.59,30.70,33.47,13.49,47.96,1004.99,2011.03,2766.86,2618.89,2999.64,599.84,580.08,15.05,0000 0000 0000 0000 000000
2018-04-23 09:13:02,0.13,1.68,0.00,27.55,30.70,33.46,13.51,47.99,1004.91,2011.08,2764.71,2617.50,2997.87,600.22,580.40,15.10,0000 0000 0000 0000 000000
2018-04-23 09:18:04,0.12,1.68,0.00,27.54,30.69,33.45,13.52,47.99,1004.90,2011.03,2762.39,2615.93,2996.06,600.00,580.25,15.15,0000 0000 0000 0000 000000
2018-04-23 09:23:05,0.12,1.69,0.00,27.52,30.67,33.44,13.52,47.98,1004.90,2011.06,2760.24,2614.52,2994.32,599.47,579.85,15.20,0000 0000 0000 0000 000000
2018-04-23 09:28:07,0.13,1.70,0.00,27.50,30.67,33.44,13.61,48.06,1004.90,2011.10,2758.10,2613.01,2992.60,600.15,580.49,15.25,0000 0000 0000 0000 000000
2018-04-23 09:33:08,0.12,1.70,0.00,27.49,30.66,33.43,13.43,48.08,1004.89,2011.10,2755.94,2611.58,2990.84,599.39,579.78,15.30,0000 0000 0000 0000 000000
2018-04-23 09:38:09,0.12,1.71,0.00,27.50,30.65,33.42,13.52,48.04,1004.81,2011.19,2753.83,2610.16,2989.18,599.76,580.09,15.35,0000 0000 0000 0000 000000
2018-04-23 09:43:10,0.12,1.72,0.00,27.49,30.64,33.42,13.60,48.07,1004.57,2011.17,2751.75,2608.67,2987.43,600.08,580.33,15.40,0000 0000 0000 0000 000000
2018-04-23 09:48:11,0.13,1.72,0.00,27.47,30.62,33.40,13.62,48.03,1004.47,2011.22,2749.72,2607.25,2985.70,600.02,580.18,15.45,0000 0000 0000 0000 000000
2018-04-23 09:53:13,0.13,1.73,0.00,27.43,30.62,33.39,13.59,47.98,1004.43,2011.37,2747.66,2605.83,2984.08,600.11,580.32,15.50,0000 0000 0000 0000 000000
2018-04-23 09:58:14,0.14,1.74,0.00,27.42,30.61,33.38,13.56,48.02,1004.42,2011.52,2745.42,2604.43,2982.33,600.01,580.24,15.55,0000 0000 0000 0000 000000
2018-04-23 10:03:16,0.15,1.74,0.00,27.41,30.60,33.37,13.57,47.99,1004.41,2011.67,2743.10,2602.84,2980.55,599.83,580.17,15.60,0000 0000 0000 0000 000000
2018-04-23 10:08:17,0.13,1.75,0.00,27.41,30.58,33.37,13.54,48.09,1004.41,2011.87,2740.93,2601.49,2978.81,599.63,579.93,15.65,0000 0000 0000 0000 000000
2018-04-23 10:13:19,0.12,1.76,0.00,27.41,30.57,33.34,13.56,48.06,1004.38,2011.96,2738.89,2600.11,2977.23,599.78,580.10,15.70,0000 0000 0000 0000 000000
2018-04-23 10:18:20,0.13,1.76,0.00,27.37,30.56,33.35,13.54,48.13,1004.18,2011.98,2736.78,2598.62,2975.52,599.95,580.13,15.76,0000 0000 0000 0000 000000
2018-04-23 10:23:21,0.11,1.77,0.00,27.35,30.55,33.32,13.53,48.12,1004.12,2011.98,2734.83,2597.32,2973.84,599.96,580.16,15.81,0000 0000 0000 0000 000000
2018-04-23 10:28:22,0.12,1.78,0.00,27.32,30.53,33.32,13.65,48.10,1004.07,2011.99,2732.74,2595.88,2972.20,600.40,580.61,15.86,0000 0000 0000 0000 000000
2018-04-23 10:33:23,0.12,1.78,0.00,27.30,30.52,33.30,13.52,48.03,1003.98,2011.99,2730.68,2594.52,2970.57,600.03,580.17,15.91,0000 0000 0000 0000 000000
2018-04-23 10:38:25,0.11,1.79,0.00,27.30,30.50,33.30,13.64,48.08,1003.92,2011.99,2728.61,2593.12,2968.89,600.15,580.32,15.96,0000 0000 0000 0000 000000
2018-04-23 10:43:26,0.11,1.79,0.00,27.30,30.50,33.27,13.51,48.16,1003.92,2011.99,2726.65,2591.80,2967.35,599.83,580.01,16.01,0000 0000 0000 0000 000000
2018-04-23 10:48:27,0.12,1.80,0.00,27.28,30.48,33.26,13.58,48.13,1003.92,2011.99,2724.72,2590.49,2965.74,599.90,580.12,16.06,0000 0000 0000 0000 000000
2018-04-23 10:53:29,0.10,1.81,0.00,27.25,30.47,33.28,13.63,48.07,1003.92,2011.99,2722.76,2589.12,2964.19,600.20,580.45,16.11,0000 0000 0000 0000 000000
2018-04-23 10:58:30,0.12,1.81,0.00,27.22,30.45,33.25,13.57,48.07,1003.86,2011.99,2720.77,2587.76,2962.54,600.12,580.44,16.16,0000 0000 0000 0000 000000
2018-04-23 11:03:32,0.12,1.82,0.00,27.20,30.45,33.25,13.55,48.11,1003.69,2011.99,2718.70,2586.37,2960.88,599.97,580.19,16.21,0000 0000 0000 0000 000000
2018-04-23 11:08:33,0.11,1.82,0.00,27.22,30.42,33.25,13.58,48.15,1003.46,2011.99,2716.70,2584.99,2959.30,599.92,579.97,16.26,0000 0000 0000 0000 000000
2018-04-23 11:13:34,0.11,1.83,0.00,27.20,30.42,33.20,13.52,48.17,1003.45,2012.00,2714.88,2583.72,2957.76,599.96,580.08,16.31,0000 0000 0000 0000 000000
2018-04-23 11:18:36,0.11,1.84,0.00,27.17,30.40,33.19,13.60,48.19,1003.44,2012.01,2712.87,2582.40,2956.19,600.22,580.35,16.36,0000 0000 0000 0000 000000
2018-04-23 11:23:37,0.11,1.84,0.00,27.14,30.39,33.19,13.65,48.14,1003.43,2012.04,2710.85,2581.11,2954.58,600.16,580.34,16.41,0000 0000 0000 0000 000000
2018-04-23 11:28:38,0.14,1.85,0.00,27.12,30.37,33.15,13.67,48.18,1003.43,2012.03,2708.80,2579.65,2952.87,600.41,580.56,16.46,0000 0000 0000 0000 000000
2018-04-23 11:33:39,0.10,1.85,0.00,27.12,30.35,33.15,13.58,48.23,1003.43,2012.03,2706.76,2578.29,2951.24,599.93,580.19,16.51,0000 0000 0000 0000 000000
2018-04-23 11:38:40,0.12,1.86,0.00,27.11,30.35,33.13,13.49,48.17,1003.43,2012.06,2704.78,2576.93,2949.65,599.98,580.19,16.56,0000 0000 0000 0000 000000
2018-04-23 11:43:41,0.12,1.87,0.00,27.08,30.32,33.12,13.55,48.19,1003.38,2012.18,2702.92,2575.65,2948.16,599.89,580.17,16.61,0000 0000 0000 0000 000000
2018-04-23 11:48:42,0.13,1.87,0.00,27.05,30.31,33.12,13.55,48.18,1003.24,2012.35,2701.07,2574.46,2946.62,599.98,580.26,16.66,0000 0000 0000 0000 000000
2018-04-23 11:53:43,0.12,1.88,0.00,27.05,30.30,33.09,13.59,48.13,1002.98,2012.64,2699.25,2573.25,2945.18,600.13,580.18,16.71,0000 0000 0000 0000 000000
2018-04-23 11:58:45,0.12,1.89,0.00,27.04,30.27,33.08,13.49,48.16,1003.19,2012.77,2697.39,2571.88,2943.69,600.14,580.43,16.76,0000 0000 0000 0000 000000
2018-04-23 12:03:46,0.12,1.89,0.00,27.01,30.26,33.06,13.49,48.18,1003.37,2012.88,2695.50,2570.65,2942.26,599.53,579.94,16.81,0000 0000 0000 0000 000000
2018-04-23 12:08:47,0.11,1.90,0.00,27.00,30.25,33.06,13.63,48.21,1003.43,2012.96,2693.68,2569.49,2940.79,600.20,580.60,16.86,0000 0000 0000 0000 000000
2018-04-23 12:13:49,0.10,1.90,0.00,26.98,30.23,33.03,13.60,48.34,1003.42,2012.98,2691.88,2568.29,2939.37,599.99,580.50,16.91,0000 0000 0000 0000 000000
2018-04-23 12:18:50,0.12,1.91,0.00,26.95,30.22,33.04,13.49,48.14,1003.41,2012.99,2689.96,2566.98,2937.80,599.80,580.32,16.96,0000 0000 0000 0000 000000
2018-04-23 12:23:51,0.09,1.92,0.00,26.95,30.20,33.03,13.50,48.15,1003.32,2012.99,2688.18,2565.79,2936.45,599.88,580.39,17.01,0000 0000 0000 0000 000000
2018-04-23 12:28:53,0.11,1.92,0.00,26.95,30.19,32.99,13.59,48.22,1002.99,2012.99,2686.49,2564.63,2934.95,600.02,580.32,17.06,0000 0000 0000 0000 000000
2018-04-23 12:33:54,0.11,1.93,0.00,26.91,30.17,32.99,13.66,48.21,1002.96,2013.00,2684.65,2563.43,2933.50,600.38,580.67,17.11,0000 0000 0000 0000 000000
2018-04-23 12:38:56,0.10,1.93,0.00,26.89,30.15,32.96,13.53,48.34,1002.92,2013.00,2682.82,2562.11,2931.96,600.15,580.45,17.16,0000 0000 0000 0000 000000
2018-04-23 12:43:56,0.11,1.94,0.00,26.87,30.14,32.96,13.57,48.28,1002.72,2013.00,2680.98,2560.84,2930.53,600.05,580.36,17.21,0000 0000 0000 0000 000000
2018-04-23 12:48:58,0.10,1.94,0.00,26.87,30.12,32.93,13.62,48.28,1002.48,2013.01,2679.13,2559.64,2929.01,600.16,580.32,17.26,0000 0000 0000 0000 000000
2018-04-23 12:53:59,0.11,1.95,0.00,26.86,30.10,32.92,13.64,48.31,1002.46,2013.04,2677.32,2558.63,2927.62,599.91,580.10,17.31,0000 0000 0000 0000 000000